Retour au catalogue

FENGYUN 1C DEB

ActifPO
NORAD 37406·DEBRIS·🇨🇳 China

Lancé May 10, 1999 depuis Taiyuan Satellite Launch Center

Loading…

Prochains Passages (prochaines 24 heures)

TLE

FraisSource: Space-Track

Époque: Sep 12, 2026, 11:00 UTC

1 37406U 99025EFY 26255.45899515  .00000484  00000-0  29562-3 0  9994
2 37406  98.4195 113.4035 0147020 210.6817 269.9202 14.05014241670751

Suivez FENGYUN 1C DEB en temps réel avec AllMySat

Download on the App Store